Погода в Сургуте

Погода в Сургуте : погода сейчас, прогноз погоды и архив. Всё, что Вы хотите узнать о погоде в Сургуте!

Хотите узнать прогноз погоды в Сургуте? Тогда Вам сюда: Погода в Сургуте

Поиск расширенной информации на нашем сайте:

Другие новости

Новости СМИ2

Главная страница сайта

Новости сайта

03.07.2017

Напоминаем, что на нашем специализированном сайте Метеоцентр.Азия вы можете получить высокодетализированные автоматические прогнозы погоды по пунктам России, СНГ и мира в авиационном формате (включающие направление и скорость ветра, видимость, явления погоды, количество и форму облачности, нижнюю и верхнюю границу облачности).


Погода в Сургуте - сегодня

Время (UTC), дата Ветер
(°,м/с) 
Видим.   Явления Облачность Т
(°С)
Тd
(°С)
f(%) Тe
(°С)
Pmin
(гПа)
dP
(гПа)
Po
(мм)
O2
(г/м3)
Тmin Tmax R s Состояние
почвы
21 18.09.17 310 (СЗ) 2300 м  слаб. дождь  10/10 150 м 
[Frnb|Ns]
+5.6 +5.6 100 +4  1006.1  1.6  749  295           
00 19.09.17 320 (СЗ) 2100 м  слаб. дождь  10/10 120 м 
[Frnb|Ns]
+5 +5 100 +3  1008.2  2.1  751  296           
03 19.09.17 330 (СЗ) 6000 м    10/10 240 м 
[Ns]
+5 +5 100 +2  1010.5  2.2  752  297  +4.9         
06 19.09.17 310 (СЗ) 6000 м  в посл. час дождь  10/10 270 м 
[Ns]
+5.3 +5.3 100 +3  1012.9  2.4  754  297           
09 19.09.17 140 (ЮВ) 96  4900 м  в посл. час дождь  9/9 360 м кучево-дожд. 
[Cb cap]
+5.7 +5.5 99 -4  1015  2.1  756  297           
12 19.09.17 300 (СЗ) 4000 м  в посл. час ливневой дождь  9/9 480 м кучево-дожд. 
[Cb cap]
+5.9 +3.8 86 +4  1016.7  1.7  757  298           
15 19.09.17 280 (З) 4000 м    8/8 630 м 
[Sc]
+5.5 +4 90 +4  1017.9  1.2  758  299    +6.3       
18 19.09.17 290 (З) 4000 м    9/9 600 м 
[Sc]
+5.1 +3.7 91 +4  1017.9  -0.1  758  299           
21 19.09.17 280 (З) 4000 м    9/9 750 м 
[Sc]
+4.4 +4.3 99 +3  1018.1  0.2  758  300           
00 20.09.17 290 (З) 4000 м    9/9 720 м 
[Sc]
+4.5 +3.5 93 +4  1017.8  -0.3  758  300           
03 20.09.17 280 (З) 4000 м    9/9 630 м 
[Sc]
+5.8 +2.7 80 +7  1017.5  -0.3  758  299  +4.2         
06 20.09.17 230 (ЮЗ) 4000 м    9/9 540 м 
[Sc]
+6.1 +2.4 77 +6  1017.2  -0.3  757  298           
09 20.09.17 130 (ЮВ) 4000 м    9/9 600 м 
[Sc]
+7.1 +2.8 74 +7  1016.3  -0.8  757  297           
12 20.09.17 120 (ЮВ) 4000 м    9/9 700 м 
[Sc]
+7.1 +3.9 80 +7  1016.1  -0.2  757  297           
15 20.09.17 020 (С) 4000 м    9/9 420 м 
[Sc]
+6.3 +6.3 100 +6  1016.1  -0.1  757  297    +7.6       
18 20.09.17 050 (СВ) 6000 м  дымка  10/10 120 м 
[Frnb|Ns]
+6.4 +6.4 100 +6  1015.7  -0.4  756  297           
21 20.09.17 050 (СВ) 6000 м  слаб. снег  10/10 120 м 
[Frnb|Ns]
+6.4 +6.4 100 +5  1015.8  0.1  756  297           
00 21.09.17 020 (С) 4000 м    8/8 2000 м средняя 
[Ac trans]
+5.5 +5.5 100 +4  1016.5  0.7  757  298           
03 21.09.17 010 (С) 4000 м    8/8 2000 м средняя 
[Ac trans]
+6 +4.5 90 +5  1017.5  758  298  +5.3         
06 21.09.17 350 (С) 4000 м    8/8 2000 м средняя 
[Ac trans]
+7.9 +3 71 +7  1017.9  0.4  758  296           
09 21.09.17 350 (С) 4000 м    9/9 2000 м средняя 
[Ac trans]
+8.6 -1 51 +7  1018.4  0.6  758  296  -1         
12 21.09.17 330 (СЗ) 4000 м    8/8 2000 м средняя 
[Ac trans]
+7.7 -1.1 54 +6  1019.2  0.7  759  298           
15 21.09.17 360 (С) 5-10{10}  4000 м    9/4 500 м кучево-дожд., средняя 
[Cb cap|Ac trans]
+5.1 +2 80 +3  1018.9  -0.3  759  300    +8.8       
18 21.09.17 330 (СЗ) 6000 м  слаб. ливневой дождь  9/9 300 м кучево-дожд. 
[Cb cap]
+3.6 +3.6 100 +1  1018.9  -0.1  759  301           
21 21.09.17 350 (С) 4000 м  в посл. час ливневой снег  5/5 720 м кучево-дожд. 
[Cb cap]
+2.1 +1 92 -1  1019.2  0.3  759  303           
Время (UTC), дата Ветер
(°,м/с) 
Видим.   Явления Облачность Т
(°С)
Тd
(°С)
f(%) Тe
(°С)
Pmin
(гПа)
dP
(гПа)
Po
(мм)
O2
(г/м3)
Тmin Tmax R s Состояние
почвы

Для получения пояснительной информации подведите курсор к названию столбца.

ПОГОДА в Сургуте - архив

Всё, что Вы хотите узнать о погоде в Сургуте - удобно и подробно!

Выберите нужную дату (начиная с 1 января 2015* года) и нажмите кнопку "Найти".
Будут отображены архивные сводки погоды по пункту Сургут, начиная с указанной даты.


Отображать данные в формате CSV (для использования в таблицах Excel)


Внимание! Наш архив погоды предназначен исключительно для личного некоммерческого использования в познавательных целях. Если Вам необходимы официальные справки о состоянии погоды (для производственных, юридических, коммерческих и т.п. целей), обращайтесь в органы Росгидромета.

*Примечание: данная дата относится к архиву по метеостанциям СССР (Россия, СНГ, Балтия).
Архив по метеостанциям Зарубежной Европы и Азии (кроме Китая) хранится 10 дней, по другим регионам земного шара (Китай, Африка, Америка, Австралия, Океания) - 1 день.

Сургут - район местоположения метеостанции


Название, широта, долгота, высота метеостанции:
Сургут 61.2°ш. 73.6°д. 56 м над ур. моря [Российская Федерация]

Дополнительная информация

В oтличие oт бoльшинства пoгoдных сайтoв мы публикуем пoдрoбную метеoинфoрмацию в детальнoм прoфессиoнальнoм фoрмате.

Характеристики температуры и влажнoсти вoздуха измеряются на высoте 2 м в тени вдали oт зданий и деревьев.
Скoрoсть ветра измеряется на высoте 10 м (на урoвне рoста челoвека скoрoсть ветра ниже в 1.5-2 раза). Если метеoстанция нахoдится в гoрoде или в лесу, тo скoрoсть ветра занижена на 2-4 м/с пo сравнению с oткрытым местoм. Скoрoсть ветра над акватoриями крупных рек и oзёр, а также на вершинах хoлмoв на 2-5 м/с выше, чем в oбычных услoвиях.
Атмoсфернoе давление в разных тoчках местнoсти мoжет значительнo oтличаться oт давления на метеoстанции, в зависимoсти oт услoвий рельефа (при пoдъёме на 10 м давление пoнижается примернo на 1 мм рт.ст.).